sat.trackr.live / text

‹ back to catalog

STARLINK-34366

NORAD 64281 · 2025-120AB

PAYLOAD ACTIVE UNKNOWN

§ Identity

Operator
Country
US
Launch date
2025-06-04
Launch site
AFWTR
Launch vehicle
Mass (kg)
RCS (m²)

Purposes: comms

External: N2YO · Heavens-Above · Gunter

§ Orbital elements

Epoch: 2026-05-25T03:46:58.912320Z

Period
94.10 min
Inclination
53.1564°
Eccentricity
0.0001052
Mean motion
15.30254217 rev/d
Perigee alt
474.3 km
Apogee alt
475.8 km
Semi-major
6,853.2 km
B*
1.1915e-3
RAAN
121.5073°
Arg perigee
92.2167°
Mean anomaly
267.8954°
Rev number
5,557

§ Raw data

STARLINK-343661 64281U 25120AB  26145.15762630  .00035156  00000+0  11915-2 0  99972 64281  53.1564 121.5073 0001052  92.2167 267.8954 15.30254217 55574

JSON: /api/v1/satellites/64281 · /tle

For live sub-satellite position, see the globe view (requires WebGL).

§ Visibility from observer

Set your observer location to see the next 7 days of passes ≥ 10°. The values pass through the URL so the page stays shareable.

No JS? Fill the form by hand. The geolocation button needs JavaScript.